Location: Ferchesar
(52.6477°N, 12.4298°E)
Time: 13:02:26
(UTC+02:00)

Transit 4A - Pass Details

Date: 07 March 2021
Orbit: 869 x 975 km, 66.8° (Epoch: 16 April)

Event Time Altitude Azimuth Distance (km) Brightness Sun altitude
Rises 11:01:42 0° 234° (SW) 3,657 11.2 29.8°
Reaches altitude 10° 11:04:20 10° 239° (WSW) 2,705 10.5 30.0°
Maximum altitude 11:10:33 57° 317° (NW) 1,120 8.4 30.3°
Drops below altitude 10° 11:16:40 10° 36° (NE) 2,656 10.1 30.6°
Sets 11:19:14 0° 41° (NE) 3,586 10.7 30.8°
